{"data":{"norad_id":54806,"epoch":"2026-05-25T04:27:53.254656Z","epoch_age_seconds":62978,"freshness":"FRESH","line1":"1 54806U 22175BA  26145.18603304  .00001110  00000+0  87800-4 0  9992","line2":"2 54806  53.2117  45.3062 0001337  58.9054 301.2069 15.08844363191687","mean_motion":15.08844363,"eccentricity":0.0001337,"inclination_deg":53.2117,"raan_deg":45.3062,"arg_perigee_deg":58.9054,"mean_anomaly_deg":301.2069,"bstar":8.78e-5,"rev_number":19168,"period_min":95.437278708911,"perigee_km":538.80513422569,"apogee_km":540.65497187568,"semimajor_km":6917.8670530507,"source":"CELESTRAK","updated_at":"2026-05-25T13:38:17.698341Z"}}